Content
SEND FEEDBACK

Daily
Averages
Monthly
Summary
United Kingdom

LONDON, ENGLAND


Home > Europe > United Kingdom > England
Elevation: 203 feet     Latitude: 51 09N     Longitude: 000 11W

WEATHER
 
SELECT A DAY
Number of Records: 299,432;   Date Range: 7/1/96 - 12/18/14
 
SHARE

PRINT THIS DATA

[ ← Previous Day ]
WEATHER ALMANAC - JULY 11, 2014
[ Next Day → ]
[ °C ]   °F
Weather ElementAverageHighLow
Temperature59.7 °F66.2 °F (9:20 pm)51.8 °F (2:50 am)
Dewpoint55.6 °F59 °F (12:20 am)50 °F (5:50 pm)
Humidity86.9 %100 % (1:50 am)78 % (10:50 am)
Barometer30.05 in30.09 in (12:50 am)30.01 in (9:20 pm)
Wind Speed6.4 mph12.7 mph (7:20 am)
Weather ElementAverage
Visibility6 mi
Wind DirectionWSW (262.1 °)

Weather ElementTotal
Precipitation---
Heating Degree Days6 (Base 65)
Growing Degree Days9 (Base 50)
Averaged from 48 records on July 11, 2014
WEATHER CONDITIONS BREAKOUT
WIND DIRECTION BREAKOUT
WEATHER BY HOUR - JULY 11, 2014
[ °C ]   °F
Local TimeTemperatureDewpointHumidityBarometerVisibilityWind DirectionWind SpeedGust SpeedPrecipitationEventsConditions
12:20 AM57.2 °F51.8 °F82 %30.09 in6.2 miNW (320°)3.5 mphPartly Cloudy
12:50 AM57.2 °F51.8 °F82 %30.09 in6.2 miNNW (330°)5.8 mphPartly Cloudy
1:20 AM55.4 °F53.6 °F94 %30.09 in6.2 miNW (320°)5.8 mphPartly Cloudy
1:50 AM57.2 °F53.6 °F88 %30.06 in6.2 miNorth (350°)6.9 mphMostly Cloudy
2:20 AM55.4 °F51.8 °F88 %30.06 in6.2 miWNW (290°)5.8 mphMostly Cloudy
2:50 AM55.4 °F53.6 °F94 %30.06 in6.2 miNW (320°)4.6 mphPartly Cloudy
3:20 AM55.4 °F53.6 °F94 %30.06 inNW (310°)4.6 mphClear
3:50 AM51.8 °F50.0 °F94 %30.06 in5.0 miWest (280°)4.6 mph
4:20 AM53.6 °F53.6 °F100 %30.06 in5.0 miWNW (300°)6.9 mph
4:50 AM53.6 °F51.8 °F94 %30.06 in5.0 miNW (320°)6.9 mph
5:20 AM55.4 °F53.6 °F94 %30.06 in5.6 miNW (310°)6.9 mphScattered Clouds
5:50 AM55.4 °F51.8 °F88 %30.06 in5.6 miWNW (300°)6.9 mphPartly Cloudy
6:20 AM55.4 °F51.8 °F88 %30.06 in5.6 miWNW (290°)5.8 mph
6:50 AM55.4 °F51.8 °F88 %30.06 in6.2 miNW (310°)6.9 mphPartly Cloudy
7:20 AM57.2 °F53.6 °F88 %30.06 in6.2 miNW (320°)9.2 mphScattered Clouds
7:50 AM57.2 °F53.6 °F88 %30.06 in6.2 miNNW (340°)11.5 mphScattered Clouds
8:20 AM57.2 °F53.6 °F88 %30.06 in6.2 miNNW (340°)10.4 mphScattered Clouds
8:50 AM57.2 °F53.6 °F88 %30.06 in6.2 miNNW (340°)12.7 mphRainLight Rain
9:20 AM55.4 °F53.6 °F94 %30.06 in3.7 miNNW (330°)12.7 mphRainLight Rain
9:50 AM55.4 °F53.6 °F94 %30.06 in6.2 miNW (320°)10.4 mphRainLight Rain
10:20 AM57.2 °F53.6 °F88 %30.06 in6.2 miWNW (300°)9.2 mphRainLight Rain
10:50 AM57.2 °F53.6 °F88 %30.06 in6.2 miWNW (300°)9.2 mphRainLight Rain
11:20 AM59.0 °F55.4 °F88 %30.04 in6.2 miWNW (300°)8.1 mphMostly Cloudy
11:50 AM59.0 °F55.4 °F88 %30.04 in6.2 miNW (310°)10.4 mphMostly Cloudy
12:20 PM59.0 °F55.4 °F88 %30.04 in6.2 miNW (320°)8.1 mphMostly Cloudy
12:50 PM59.0 °F55.4 °F88 %30.04 in6.2 miNW (320°)6.9 mphMostly Cloudy
1:20 PM60.8 °F55.4 °F82 %30.04 in6.2 miNW (310°)6.9 mphMostly Cloudy
1:50 PM60.8 °F57.2 °F88 %30.04 in6.2 miNW (310°)5.8 mphMostly Cloudy
2:20 PM62.6 °F57.2 °F82 %30.04 in6.2 miNorth (350°)5.8 mphMostly Cloudy
2:50 PM62.6 °F57.2 °F82 %30.04 in6.2 miVariable4.6 mphMostly Cloudy
3:20 PM62.6 °F57.2 °F82 %30.04 in6.2 miNorth (350°)4.6 mphMostly Cloudy
3:50 PM62.6 °F57.2 °F82 %30.04 in6.2 miNorth (360°)5.8 mphMostly Cloudy
4:20 PM64.4 °F59.0 °F83 %30.04 in6.2 miNNW (330°)5.8 mphMostly Cloudy
4:50 PM64.4 °F59.0 °F83 %30.04 in6.2 miNW (320°)5.8 mphMostly Cloudy
5:20 PM64.4 °F59.0 °F83 %30.04 in6.2 miNNW (330°)5.8 mphMostly Cloudy
5:50 PM64.4 °F59.0 °F83 %30.04 in6.2 miNNW (330°)8.1 mphMostly Cloudy
6:20 PM66.2 °F59.0 °F78 %30.01 in6.2 miNNW (330°)4.6 mphMostly Cloudy
6:50 PM66.2 °F59.0 °F78 %30.01 in6.2 miNW (310°)5.8 mphMostly Cloudy
7:20 PM66.2 °F59.0 °F78 %30.01 in6.2 miWNW (290°)4.6 mphMostly Cloudy
7:50 PM66.2 °F59.0 °F78 %30.01 in6.2 miVariable3.5 mphMostly Cloudy
8:20 PM66.2 °F59.0 °F78 %30.01 in6.2 miVariable3.5 mphMostly Cloudy
8:50 PM66.2 °F59.0 °F78 %30.01 in6.2 miVariable3.5 mphMostly Cloudy
9:20 PM64.4 °F59.0 °F83 %30.01 in6.2 miVariable2.3 mphMostly Cloudy
9:50 PM64.4 °F59.0 °F83 %30.04 in6.2 miSSW (210°)2.3 mphMostly Cloudy
10:20 PM62.6 °F59.0 °F88 %30.04 in6.2 miEast (90°)5.8 mphMostly Cloudy
10:50 PM60.8 °F59.0 °F94 %30.04 in6.2 miEast (90°)5.8 mphMostly Cloudy
11:20 PM60.8 °F59.0 °F94 %30.04 in5.0 miEast (80°)3.5 mphScattered Clouds
11:50 PM60.8 °F59.0 °F94 %30.01 in4.3 miVariable2.3 mphScattered Clouds
Hourly data recorded from EGKK, located miles away from London, England







STORIES FROM OUR PARTNERS